QPF
0.01 0.01 0.01 0.01 0.01 0.01 0.02 0.02 0.02 0.01 0.01 0.02 0.02 0.02 0.02 0.01 0.01 0.01 0.01 0.01 0.01 0.02 0.02 0.02 0.02 0.02 0.01 0.01 0.01 0.01 0.02 0.02 0.02 0.03 0.03 0.04 0.05 0.05 0.06 0.06 0.05 0.04 0.03 0.03
0.01 0.01 0.01 0.01 0.01 0.01 0.01 0.01 0.01 0.01 0.01 0.02 0.02 0.02 0.02 0.02 0.01 0.01 0.01 0.01 0.01 0.02 0.02 0.02 0.02 0.02 0.02 0.02 0.01 0.01 0.02 0.02 0.02 0.03 0.03 0.03 0.04 0.04 0.05 0.05 0.05 0.05 0.04 0.04
0.01 0.01 0.01 0.01 0.01 0.01 0.01 0.01 0.01 0.01 0.01 0.01 0.01 0.01 0.02 0.02 0.02 0.02 0.01 0.01 0.01 0.01 0.02 0.02 0.02 0.02 0.02 0.02 0.01 0.02 0.02 0.02 0.02 0.02 0.03 0.03 0.03 0.03 0.04 0.04 0.04 0.04 0.04 0.04
0.02 0.01 0.01 0.01 0.00 0.00 0.01 0.01 0.01 0.01 0.01 0.01 0.01 0.02 0.02 0.02 0.02 0.02 0.01 0.01 0.01 0.01 0.01 0.02 0.02 0.02 0.02 0.02 0.01 0.01 0.02 0.02 0.02 0.02 0.02 0.02 0.02 0.02 0.03 0.03 0.03 0.04 0.04 0.04
0.02 0.01 0.01 0.01 0.00 0.00 0.01 0.01 0.01 0.01 0.01 0.01 0.01 0.01 0.02 0.02 0.01 0.02 0.02 0.01 0.01 0.01 0.02 0.01 0.01 0.01 0.01 0.01 0.02 0.02 0.02 0.03 0.03 0.03 0.03 0.03 0.02 0.02 0.02 0.02 0.03 0.03 0.03 0.04
0.02 0.02 0.01 0.00 0.00 0.00 0.01 0.01 0.01 0.01 0.01 0.01 0.01 0.01 0.01 0.01 0.01 0.01 0.01 0.01 0.01 0.01 0.01 0.01 0.02 0.02 0.01 0.01 0.02 0.02 0.03 0.03 0.03 0.03 0.03 0.03 0.02 0.02 0.02 0.02 0.02 0.03 0.03 0.04
0.01 0.02 0.01 0.00 0.00 0.01 0.01 0.01 0.01 0.01 0.01 0.01 0.01 0.01 0.01 0.01 0.01 0.01 0.01 0.01 0.01 0.01 0.01 0.01 0.02 0.02 0.02 0.02 0.02 0.02 0.03 0.03 0.03 0.03 0.03 0.02 0.02 0.02 0.02 0.02 0.02 0.02 0.03 0.03
0.01 0.02 0.01 0.01 0.00 0.01 0.01 0.01 0.01 0.01 0.01 0.01 0.01 0.01 0.01 0.01 0.01 0.00 0.00 0.00 0.01 0.01 0.01 0.01 0.01 0.02 0.02 0.02 0.02 0.02 0.02 0.03 0.03 0.03 0.02 0.02 0.02 0.02 0.02 0.02 0.02 0.03 0.03 0.04
0.01 0.01 0.01 0.01 0.01 0.01 0.01 0.01 0.01 0.01 0.01 0.01 0.01 0.00 0.00 0.00 0.00 0.00 0.00 0.00 0.00 0.00 0.01 0.01 0.01 0.01 0.02 0.02 0.02 0.02 0.02 0.03 0.03 0.03 0.02 0.02 0.02 0.02 0.02 0.02 0.02 0.02 0.03 0.03
0.01 0.01 0.01 0.01 0.01 0.01 0.01 0.01 0.01 0.01 0.01 0.01 0.01 0.00 0.00 0.00 0.00 0.00 0.00 0.00 0.00 0.00 0.00 0.01 0.01 0.01 0.01 0.01 0.02 0.02 0.02 0.02 0.02 0.02 0.02 0.02 0.02 0.02 0.02 0.02 0.02 0.02 0.02 0.02
0.01 0.01 0.01 0.01 0.01 0.01 0.01 0.01 0.01 0.01 0.01 0.01 0.01 0.00 0.00 0.00 0.00 0.00 0.00 0.00 0.00 0.00 0.00 0.00 0.01 0.01 0.01 0.02 0.02 0.02 0.02 0.02 0.02 0.02 0.02 0.02 0.02 0.02 0.02 0.02 0.02 0.02 0.02 0.02
0.01 0.01 0.01 0.01 0.01 0.01 0.01 0.01 0.00 0.01 0.00 0.00 0.01 0.01 0.00 0.00 0.00 0.00 0.00 0.00 0.00 0.00 0.00 0.01 0.01 0.01 0.01 0.02 0.02 0.01 0.02 0.02 0.02 0.01 0.02 0.02 0.02 0.02 0.02 0.02 0.02 0.02 0.02 0.03
0.01 0.01 0.01 0.01 0.00 0.00 0.01 0.00 0.00 0.00 0.00 0.00 0.00 0.00 0.00 0.00 0.00 0.00 0.00 0.00 0.00 0.01 0.01 0.01 0.01 0.01 0.01 0.01 0.02 0.02 0.01 0.02 0.02 0.01 0.01 0.02 0.02 0.02 0.02 0.02 0.03 0.03 0.03 0.03
0.01 0.01 0.00 0.00 0.00 0.00 0.00 0.00 0.00 0.00 0.00 0.00 0.00 0.00 0.00 0.00 0.00 0.00 0.00 0.00 0.01 0.01 0.01 0.01 0.01 0.01 0.01 0.01 0.02 0.02 0.01 0.02 0.02 0.02 0.01 0.01 0.02 0.02 0.02 0.02 0.02 0.03 0.03 0.03
0.01 0.01 0.01 0.00 0.00 0.00 0.00 0.00 0.00 0.00 0.00 0.00 0.00 0.00 0.00 0.00 0.00 0.00 0.00 0.00 0.01 0.01 0.01 0.00 0.01 0.01 0.01 0.01 0.01 0.02 0.02 0.02 0.02 0.02 0.01 0.01 0.01 0.02 0.02 0.02 0.02 0.02 0.02 0.03
0.01 0.00 0.00 0.00 0.00 0.00 0.00 0.00 0.00 0.00 0.00 0.00 0.00 0.00 0.00 0.00 0.00 0.00 0.00 0.01 0.01 0.01 0.01 0.01 0.01 0.01 0.01 0.01 0.01 0.01 0.01 0.01 0.02 0.02 0.01 0.01 0.02 0.02 0.02 0.02 0.02 0.02 0.02 0.02
0.00 0.00 0.00 0.00 0.00 0.00 0.00 0.00 0.00 0.00 0.00 0.00 0.00 0.00 0.00 0.00 0.00 0.00 0.01 0.01 0.01 0.01 0.01 0.01 0.01 0.01 0.01 0.01 0.01 0.01 0.01 0.01 0.01 0.01 0.01 0.01 0.01 0.02 0.02 0.02 0.02 0.02 0.01 0.02
0.00 0.00 0.00 0.00 0.00 0.00 0.00 0.00 0.00 0.00 0.00 0.00 0.00 0.00 0.00 0.00 0.01 0.01 0.01 0.01 0.00 0.00 0.00 0.01 0.01 0.01 0.01 0.01 0.01 0.01 0.01 0.01 0.01 0.01 0.01 0.01 0.02 0.02 0.02 0.02 0.02 0.02 0.02 0.02
0.00 0.00 0.00 0.00 0.00 0.00 0.00 0.00 0.00 0.00 0.00 0.00 0.00 0.00 0.00 0.01 0.01 0.01 0.01 0.00 0.00 0.00 0.01 0.01 0.01 0.01 0.01 0.01 0.01 0.01 0.01 0.01 0.01 0.01 0.01 0.02 0.02 0.02 0.02 0.02 0.03 0.02 0.02 0.02
0.00 0.00 0.00 0.00 0.00 0.00 0.00 0.00 0.00 0.00 0.00 0.00 0.00 0.00 0.00 0.00 0.00 0.01 0.00 0.00 0.01 0.01 0.01 0.01 0.01 0.01 0.01 0.01 0.01 0.01 0.01 0.01 0.01 0.01 0.01 0.01 0.02 0.02 0.02 0.02 0.02 0.02 0.02 0.02
0.00 0.00 0.00 0.00 0.00 0.00 0.00 0.00 0.00 0.00 0.00 0.00 0.00 0.01 0.00 0.00 0.00 0.00 0.00 0.00 0.00 0.01 0.01 0.01 0.01 0.01 0.01 0.01 0.01 0.01 0.01 0.01 0.01 0.01 0.01 0.01 0.01 0.01 0.02 0.02 0.02 0.02 0.02 0.02
0.00 0.00 0.00 0.00 0.00 0.00 0.00 0.00 0.00 0.00 0.00 0.00 0.00 0.00 0.00 0.00 0.00 0.00 0.00 0.00 0.00 0.01 0.01 0.01 0.01 0.01 0.02 0.02 0.01 0.01 0.01 0.01 0.01 0.01 0.01 0.01 0.01 0.01 0.01 0.01 0.01 0.01 0.01 0.01
0.00 0.00 0.00 0.00 0.00 0.00 0.00 0.00 0.00 0.00 0.00 0.00 0.00 0.00 0.00 0.00 0.00 0.00 0.00 0.00 0.00 0.01 0.01 0.01 0.01 0.01 0.02 0.02 0.01 0.01 0.01 0.01 0.01 0.01 0.01 0.01 0.01 0.01 0.01 0.01 0.01 0.01 0.01 0.01
0.00 0.00 0.00 0.00 0.00 0.00 0.00 0.00 0.00 0.00 0.00 0.00 0.00 0.00 0.00 0.00 0.00 0.00 0.00 0.00 0.01 0.01 0.01 0.01 0.01 0.01 0.01 0.01 0.01 0.01 0.01 0.01 0.01 0.01 0.01 0.01 0.01 0.01 0.01 0.01 0.01 0.01 0.01 0.01
0.00 0.00 0.00 0.00 0.00 0.00 0.00 0.00 0.00 0.00 0.00 0.00 0.00 0.00 0.00 0.00 0.00 0.00 0.00 0.00 0.00 0.00 0.00 0.00 0.01 0.01 0.01 0.01 0.01 0.01 0.01 0.01 0.01 0.01 0.01 0.01 0.01 0.01 0.01 0.01 0.01 0.01 0.01 0.01
0.00 0.00 0.00 0.00 0.00 0.00 0.00 0.00 0.00 0.00 0.00 0.00 0.00 0.00 0.00 0.00 0.00 0.00 0.00 0.00 0.00 0.00 0.00 0.00 0.00 0.00 0.00 0.00 0.01 0.01 0.01 0.01 0.01 0.01 0.01 0.01 0.01 0.01 0.01 0.01 0.01 0.01 0.01 0.01
0.00 0.00 0.00 0.00 0.00 0.00 0.00 0.00 0.00 0.00 0.00 0.00 0.00 0.00 0.00 0.00 0.00 0.00 0.00 0.00 0.00 0.00 0.00 0.00 0.00 0.00 0.00 0.00 0.00 0.01 0.01 0.01 0.01 0.01 0.01 0.01 0.01 0.01 0.01 0.01 0.01 0.01 0.01 0.01
MSLP
1024.71 1025.21 1025.68 1026.12 1026.55 1027.04 1027.62 1028.37 1029.32 1030.49 1031.86 1033.40 1035.02 1036.66 1038.22 1039.63 1040.84 1041.81 1042.54 1043.04 1043.34 1043.47 1043.47 1043.36 1043.13 1042.80 1042.36 1041.81 1041.15 1040.40 1039.60 1038.77 1037.94 1037.15 1036.42 1035.74 1035.12 1034.53 1033.93 1033.32 1032.66 1031.94 1031.19 1030.41
1025.28 1025.83 1026.37 1026.90 1027.44 1028.01 1028.66 1029.42 1030.33 1031.40 1032.64 1034.01 1035.46 1036.94 1038.38 1039.70 1040.87 1041.84 1042.60 1043.14 1043.48 1043.64 1043.64 1043.49 1043.22 1042.82 1042.32 1041.72 1041.04 1040.29 1039.51 1038.72 1037.95 1037.21 1036.52 1035.86 1035.23 1034.61 1033.96 1033.28 1032.55 1031.77 1030.96 1030.13
1025.70 1026.26 1026.85 1027.45 1028.06 1028.71 1029.42 1030.21 1031.11 1032.13 1033.28 1034.54 1035.87 1037.23 1038.57 1039.82 1040.94 1041.90 1042.66 1043.21 1043.56 1043.72 1043.70 1043.51 1043.19 1042.74 1042.19 1041.55 1040.86 1040.13 1039.39 1038.66 1037.95 1037.28 1036.63 1036.00 1035.37 1034.72 1034.03 1033.30 1032.51 1031.68 1030.82 1029.96
1026.00 1026.58 1027.19 1027.85 1028.53 1029.26 1030.03 1030.87 1031.79 1032.80 1033.91 1035.09 1036.33 1037.59 1038.83 1040.00 1041.06 1041.96 1042.69 1043.22 1043.54 1043.67 1043.61 1043.38 1043.01 1042.52 1041.95 1041.30 1040.62 1039.93 1039.24 1038.58 1037.94 1037.33 1036.74 1036.14 1035.52 1034.86 1034.16 1033.39 1032.57 1031.70 1030.82 1029.95
1026.26 1026.86 1027.52 1028.24 1029.01 1029.82 1030.67 1031.57 1032.53 1033.54 1034.61 1035.74 1036.89 1038.05 1039.17 1040.23 1041.19 1042.00 1042.65 1043.11 1043.38 1043.46 1043.35 1043.09 1042.69 1042.18 1041.61 1040.98 1040.34 1039.70 1039.08 1038.49 1037.92 1037.37 1036.83 1036.27 1035.67 1035.03 1034.32 1033.54 1032.72 1031.85 1030.98 1030.12
1026.56 1027.21 1027.94 1028.74 1029.60 1030.50 1031.44 1032.40 1033.39 1034.41 1035.44 1036.49 1037.54 1038.57 1039.55 1040.46 1041.28 1041.96 1042.50 1042.86 1043.06 1043.07 1042.93 1042.64 1042.24 1041.75 1041.20 1040.62 1040.03 1039.46 1038.91 1038.39 1037.89 1037.40 1036.91 1036.38 1035.82 1035.19 1034.50 1033.74 1032.93 1032.09 1031.24 1030.41
1027.00 1027.73 1028.55 1029.44 1030.39 1031.37 1032.38 1033.39 1034.39 1035.38 1036.35 1037.30 1038.22 1039.08 1039.89 1040.63 1041.27 1041.79 1042.19 1042.45 1042.56 1042.53 1042.37 1042.09 1041.71 1041.27 1040.78 1040.26 1039.75 1039.25 1038.77 1038.31 1037.86 1037.42 1036.96 1036.46 1035.92 1035.32 1034.65 1033.93 1033.16 1032.37 1031.56 1030.77
1027.64 1028.46 1029.37 1030.35 1031.37 1032.42 1033.46 1034.48 1035.46 1036.39 1037.26 1038.08 1038.82 1039.50 1040.11 1040.65 1041.10 1041.46 1041.73 1041.89 1041.93 1041.88 1041.72 1041.47 1041.16 1040.78 1040.37 1039.94 1039.50 1039.07 1038.65 1038.24 1037.83 1037.41 1036.96 1036.48 1035.95 1035.38 1034.74 1034.06 1033.34 1032.59 1031.84 1031.11
1028.50 1029.41 1030.39 1031.43 1032.50 1033.56 1034.59 1035.57 1036.48 1037.31 1038.05 1038.70 1039.25 1039.74 1040.14 1040.48 1040.76 1040.97 1041.12 1041.20 1041.21 1041.15 1041.03 1040.85 1040.62 1040.34 1040.02 1039.68 1039.32 1038.94 1038.56 1038.18 1037.77 1037.35 1036.90 1036.42 1035.89 1035.32 1034.71 1034.07 1033.39 1032.70 1032.01 1031.33
1029.56 1030.52 1031.54 1032.60 1033.65 1034.67 1035.64 1036.53 1037.32 1038.01 1038.58 1039.05 1039.42 1039.71 1039.94 1040.11 1040.24 1040.33 1040.40 1040.44 1040.45 1040.42 1040.36 1040.26 1040.12 1039.94 1039.72 1039.46 1039.16 1038.83 1038.47 1038.09 1037.67 1037.23 1036.76 1036.25 1035.71 1035.15 1034.55 1033.93 1033.30 1032.66 1032.02 1031.38
1030.74 1031.72 1032.72 1033.72 1034.70 1035.62 1036.47 1037.22 1037.86 1038.38 1038.78 1039.08 1039.29 1039.42 1039.50 1039.55 1039.58 1039.60 1039.63 1039.66 1039.70 1039.73 1039.74 1039.73 1039.68 1039.58 1039.44 1039.24 1038.99 1038.69 1038.33 1037.93 1037.50 1037.02 1036.51 1035.98 1035.42 1034.85 1034.26 1033.66 1033.05 1032.44 1031.84 1031.24
1031.95 1032.87 1033.79 1034.68 1035.52 1036.29 1036.97 1037.55 1038.01 1038.37 1038.62 1038.78 1038.86 1038.88 1038.87 1038.85 1038.84 1038.84 1038.87 1038.92 1039.00 1039.08 1039.16 1039.22 1039.24 1039.22 1039.13 1038.97 1038.75 1038.46 1038.10 1037.68 1037.22 1036.71 1036.18 1035.62 1035.04 1034.46 1033.87 1033.28 1032.69 1032.10 1031.51 1030.93
1033.03 1033.86 1034.64 1035.37 1036.03 1036.61 1037.10 1037.49 1037.79 1038.00 1038.13 1038.19 1038.20 1038.17 1038.13 1038.10 1038.09 1038.10 1038.15 1038.24 1038.35 1038.47 1038.60 1038.70 1038.76 1038.78 1038.72 1038.59 1038.38 1038.09 1037.73 1037.31 1036.83 1036.31 1035.77 1035.20 1034.62 1034.03 1033.44 1032.85 1032.26 1031.68 1031.10 1030.53
1033.90 1034.58 1035.19 1035.73 1036.18 1036.56 1036.86 1037.08 1037.24 1037.34 1037.39 1037.41 1037.40 1037.37 1037.35 1037.34 1037.36 1037.41 1037.49 1037.60 1037.73 1037.87 1038.00 1038.11 1038.19 1038.20 1038.16 1038.03 1037.83 1037.55 1037.21 1036.80 1036.34 1035.83 1035.30 1034.74 1034.17 1033.60 1033.01 1032.43 1031.84 1031.25 1030.67 1030.09
1034.49 1034.99 1035.41 1035.74 1035.99 1036.18 1036.31 1036.39 1036.45 1036.48 1036.50 1036.52 1036.53 1036.55 1036.58 1036.62 1036.68 1036.76 1036.86 1036.97 1037.10 1037.22 1037.32 1037.41 1037.46 1037.46 1037.40 1037.28 1037.10 1036.85 1036.53 1036.16 1035.75 1035.29 1034.80 1034.28 1033.74 1033.19 1032.62 1032.04 1031.46 1030.86 1030.27 1029.67
1034.75 1035.08 1035.31 1035.45 1035.51 1035.54 1035.53 1035.51 1035.50 1035.51 1035.54 1035.59 1035.66 1035.74 1035.83 1035.93 1036.02 1036.12 1036.22 1036.31 1036.39 1036.46 1036.51 1036.55 1036.55 1036.52 1036.46 1036.34 1036.18 1035.98 1035.72 1035.42 1035.08 1034.69 1034.27 1033.81 1033.33 1032.81 1032.26 1031.70 1031.11 1030.50 1029.90 1029.29
1034.74 1034.90 1034.95 1034.92 1034.83 1034.72 1034.62 1034.54 1034.50 1034.51 1034.57 1034.67 1034.80 1034.94 1035.09 1035.23 1035.35 1035.44 1035.51 1035.55 1035.57 1035.57 1035.55 1035.52 1035.48 1035.42 1035.35 1035.25 1035.13 1034.98 1034.81 1034.59 1034.33 1034.04 1033.70 1033.31 1032.88 1032.40 1031.89 1031.33 1030.75 1030.14 1029.53 1028.91
1034.53 1034.53 1034.43 1034.25 1034.04 1033.83 1033.66 1033.54 1033.49 1033.52 1033.61 1033.76 1033.94 1034.14 1034.32 1034.47 1034.59 1034.66 1034.68 1034.66 1034.60 1034.52 1034.44 1034.35 1034.26 1034.19 1034.12 1034.05 1033.98 1033.91 1033.81 1033.69 1033.52 1033.31 1033.05 1032.73 1032.35 1031.91 1031.42 1030.89 1030.31 1029.71 1029.10 1028.49
1034.20 1034.06 1033.83 1033.54 1033.23 1032.94 1032.71 1032.57 1032.52 1032.55 1032.67 1032.85 1033.06 1033.28 1033.46 1033.61 1033.70 1033.72 1033.69 1033.60 1033.48 1033.34 1033.19 1033.06 1032.95 1032.88 1032.83 1032.80 1032.79 1032.78 1032.76 1032.71 1032.62 1032.48 1032.28 1032.01 1031.67 1031.26 1030.80 1030.27 1029.71 1029.12 1028.53 1027.94
1033.83 1033.57 1033.23 1032.84 1032.45 1032.10 1031.83 1031.65 1031.58 1031.62 1031.74 1031.91 1032.12 1032.32 1032.49 1032.61 1032.65 1032.63 1032.54 1032.40 1032.23 1032.04 1031.87 1031.72 1031.62 1031.55 1031.53 1031.54 1031.58 1031.63 1031.66 1031.66 1031.62 1031.53 1031.36 1031.11 1030.79 1030.40 1029.95 1029.45 1028.90 1028.34 1027.78 1027.23
1033.49 1033.12 1032.67 1032.20 1031.73 1031.32 1031.00 1030.79 1030.69 1030.69 1030.78 1030.93 1031.10 1031.26 1031.39 1031.46 1031.46 1031.39 1031.26 1031.09 1030.89 1030.70 1030.52 1030.38 1030.29 1030.25 1030.26 1030.31 1030.38 1030.46 1030.52 1030.54 1030.51 1030.42 1030.26 1030.02 1029.70 1029.32 1028.88 1028.40 1027.88 1027.36 1026.84 1026.35
1033.17 1032.70 1032.17 1031.61 1031.08 1030.61 1030.23 1029.96 1029.81 1029.77 1029.80 1029.89 1030.01 1030.11 1030.19 1030.21 1030.16 1030.06 1029.91 1029.73 1029.53 1029.34 1029.18 1029.07 1029.01 1029.00 1029.03 1029.10 1029.19 1029.27 1029.33 1029.34 1029.30 1029.19 1029.01 1028.75 1028.43 1028.05 1027.62 1027.17 1026.70 1026.22 1025.76 1025.33
1032.88 1032.32 1031.70 1031.07 1030.47 1029.94 1029.50 1029.18 1028.96 1028.85 1028.81 1028.83 1028.88 1028.92 1028.93 1028.90 1028.82 1028.70 1028.54 1028.37 1028.19 1028.03 1027.90 1027.82 1027.79 1027.80 1027.85 1027.92 1028.00 1028.06 1028.09 1028.07 1027.99 1027.85 1027.63 1027.36 1027.03 1026.66 1026.26 1025.84 1025.41 1025.00 1024.60 1024.24
1032.56 1031.92 1031.23 1030.54 1029.88 1029.30 1028.81 1028.42 1028.14 1027.95 1027.84 1027.78 1027.75 1027.73 1027.68 1027.61 1027.51 1027.38 1027.22 1027.07 1026.92 1026.79 1026.70 1026.65 1026.64 1026.66 1026.70 1026.76 1026.81 1026.83 1026.81 1026.75 1026.62 1026.44 1026.21 1025.92 1025.60 1025.24 1024.87 1024.50 1024.13 1023.78 1023.45 1023.14
1032.18 1031.48 1030.74 1030.01 1029.31 1028.69 1028.15 1027.71 1027.36 1027.11 1026.92 1026.79 1026.69 1026.60 1026.51 1026.40 1026.28 1026.14 1026.00 1025.86 1025.74 1025.64 1025.58 1025.54 1025.54 1025.55 1025.58 1025.60 1025.61 1025.59 1025.52 1025.41 1025.25 1025.04 1024.79 1024.51 1024.20 1023.88 1023.55 1023.23 1022.92 1022.62 1022.34 1022.08
1031.74 1031.00 1030.24 1029.48 1028.77 1028.11 1027.54 1027.06 1026.66 1026.35 1026.10 1025.90 1025.73 1025.58 1025.44 1025.30 1025.16 1025.02 1024.89 1024.76 1024.66 1024.58 1024.53 1024.50 1024.48 1024.48 1024.48 1024.46 1024.42 1024.35 1024.24 1024.09 1023.90 1023.69 1023.44 1023.17 1022.89 1022.61 1022.34 1022.07 1021.81 1021.55 1021.31 1021.07
1031.26 1030.51 1029.74 1028.98 1028.27 1027.61 1027.02 1026.50 1026.06 1025.70 1025.38 1025.12 1024.90 1024.70 1024.51 1024.34 1024.18 1024.03 1023.89 1023.77 1023.68 1023.60 1023.54 1023.50 1023.47 1023.44 1023.40 1023.34 1023.25 1023.14 1023.00 1022.82 1022.63 1022.41 1022.18 1021.93 1021.69 1021.46 1021.22 1020.99 1020.77 1020.54 1020.30 1020.06
Thickness
5395 5393 5388 5383 5378 5372 5370 5376 5380 5380 5369 5360 5344 5337 5333 5329 5326 5325 5324 5322 5322 5323 5325 5326 5328 5330 5331 5334 5337 5340 5344 5348 5350 5353 5356 5359 5361 5363 5366 5368 5370 5371 5372 5373
5379 5379 5374 5368 5369 5364 5359 5356 5356 5353 5350 5337 5328 5324 5321 5317 5315 5314 5312 5311 5310 5311 5312 5313 5314 5316 5318 5321 5324 5327 5331 5334 5337 5339 5342 5344 5346 5349 5351 5353 5356 5358 5359 5360
5383 5366 5361 5369 5361 5353 5347 5341 5340 5344 5339 5321 5318 5315 5311 5306 5304 5302 5300 5299 5298 5299 5299 5300 5301 5302 5305 5307 5310 5313 5317 5320 5323 5326 5328 5330 5332 5334 5337 5340 5342 5344 5346 5348
5366 5359 5363 5363 5336 5337 5332 5325 5320 5319 5314 5309 5306 5302 5298 5295 5291 5289 5287 5286 5286 5286 5287 5288 5288 5290 5292 5295 5297 5300 5303 5306 5309 5312 5314 5316 5318 5320 5323 5325 5328 5330 5333 5334
5356 5360 5362 5345 5327 5319 5318 5320 5309 5306 5302 5298 5293 5294 5294 5285 5279 5276 5275 5274 5274 5273 5274 5275 5277 5278 5280 5283 5285 5287 5290 5293 5295 5297 5299 5301 5304 5306 5308 5311 5314 5316 5318 5320
5343 5350 5356 5345 5314 5305 5307 5315 5301 5294 5290 5286 5284 5295 5294 5275 5268 5266 5264 5263 5263 5263 5263 5264 5265 5266 5268 5270 5272 5274 5277 5279 5282 5284 5286 5288 5290 5292 5294 5297 5300 5302 5305 5307
5334 5336 5339 5311 5296 5297 5311 5315 5288 5282 5279 5273 5274 5275 5268 5261 5258 5255 5254 5252 5251 5251 5252 5252 5253 5254 5256 5258 5259 5261 5263 5267 5269 5271 5273 5275 5277 5279 5281 5284 5287 5289 5292 5295
5319 5324 5325 5288 5287 5292 5293 5277 5273 5270 5266 5262 5259 5254 5252 5250 5247 5245 5243 5242 5241 5240 5240 5240 5240 5241 5244 5245 5247 5249 5252 5255 5258 5260 5261 5263 5265 5267 5269 5271 5274 5277 5279 5282
5308 5310 5288 5277 5276 5269 5264 5262 5260 5257 5253 5249 5245 5243 5241 5239 5236 5234 5232 5231 5230 5228 5229 5229 5229 5229 5231 5233 5235 5237 5241 5244 5246 5248 5250 5251 5253 5256 5257 5259 5262 5265 5267 5271
5281 5284 5274 5265 5259 5254 5250 5248 5245 5242 5239 5236 5234 5232 5229 5227 5225 5223 5221 5219 5218 5217 5218 5218 5218 5218 5219 5221 5223 5225 5229 5232 5234 5236 5238 5240 5241 5243 5245 5247 5250 5252 5255 5258
5270 5269 5261 5257 5249 5244 5239 5235 5231 5229 5226 5224 5222 5219 5216 5214 5213 5211 5209 5208 5206 5206 5206 5207 5207 5207 5208 5210 5211 5214 5217 5220 5222 5225 5227 5228 5230 5232 5234 5236 5237 5240 5243 5245
5275 5263 5256 5252 5240 5233 5228 5225 5221 5217 5215 5212 5209 5207 5204 5202 5200 5198 5197 5196 5195 5195 5195 5195 5196 5197 5198 5199 5200 5202 5206 5209 5211 5213 5215 5217 5219 5221 5223 5224 5227 5229 5231 5233
5246 5239 5236 5231 5225 5221 5218 5214 5210 5207 5204 5201 5198 5195 5193 5191 5189 5187 5186 5185 5184 5184 5184 5184 5185 5186 5187 5188 5189 5191 5194 5196 5199 5201 5203 5205 5207 5210 5213 5215 5217 5219 5221 5224
5227 5224 5223 5220 5216 5209 5205 5202 5198 5195 5193 5190 5187 5184 5181 5179 5178 5176 5175 5175 5174 5174 5174 5174 5175 5176 5177 5177 5179 5181 5183 5185 5187 5189 5192 5194 5196 5198 5200 5203 5206 5209 5210 5212
5217 5213 5211 5207 5201 5197 5193 5190 5187 5185 5183 5180 5176 5173 5171 5169 5168 5167 5166 5165 5164 5164 5164 5164 5165 5166 5166 5168 5169 5171 5173 5175 5176 5179 5181 5183 5185 5187 5189 5191 5193 5196 5199 5201
5206 5201 5198 5194 5192 5188 5183 5180 5178 5176 5173 5169 5166 5163 5160 5158 5157 5157 5155 5154 5154 5155 5155 5155 5155 5156 5157 5158 5160 5162 5163 5165 5166 5168 5170 5172 5174 5176 5178 5180 5182 5185 5187 5190
5196 5194 5190 5187 5184 5179 5175 5171 5168 5166 5162 5159 5156 5153 5150 5148 5148 5147 5146 5145 5144 5144 5144 5145 5146 5147 5147 5148 5149 5152 5153 5155 5156 5157 5159 5161 5163 5165 5167 5169 5171 5174 5176 5178
5188 5185 5181 5177 5174 5170 5167 5163 5159 5156 5152 5150 5146 5143 5141 5139 5138 5138 5137 5136 5135 5135 5136 5136 5136 5137 5138 5138 5139 5140 5142 5143 5144 5146 5148 5150 5152 5154 5156 5158 5160 5162 5165 5167
5177 5174 5170 5167 5163 5159 5156 5153 5149 5146 5143 5139 5137 5134 5132 5130 5129 5128 5126 5125 5126 5127 5128 5127 5127 5128 5129 5129 5130 5131 5131 5132 5133 5135 5136 5138 5140 5142 5144 5146 5149 5151 5154 5156
5169 5165 5161 5157 5153 5149 5146 5143 5140 5136 5134 5130 5128 5126 5124 5122 5120 5118 5117 5117 5117 5117 5117 5118 5118 5119 5120 5120 5120 5121 5122 5122 5123 5124 5125 5127 5129 5131 5133 5135 5137 5140 5142 5144
5160 5156 5152 5148 5145 5141 5138 5134 5131 5128 5125 5122 5119 5117 5115 5114 5112 5110 5109 5111 5111 5109 5109 5109 5110 5110 5111 5111 5111 5111 5112 5112 5112 5113 5114 5116 5117 5119 5121 5123 5126 5128 5130 5133
5150 5146 5143 5140 5136 5133 5129 5126 5122 5119 5116 5113 5111 5109 5107 5106 5104 5102 5101 5101 5101 5100 5101 5101 5101 5102 5102 5103 5102 5102 5102 5102 5103 5104 5105 5106 5107 5109 5111 5112 5115 5117 5119 5122
5141 5137 5134 5130 5127 5124 5121 5117 5114 5111 5108 5105 5103 5101 5099 5097 5096 5095 5095 5094 5092 5092 5092 5092 5093 5094 5094 5093 5093 5093 5093 5093 5094 5095 5095 5096 5097 5099 5101 5102 5104 5106 5108 5111
5132 5129 5125 5121 5118 5115 5112 5110 5105 5103 5100 5097 5095 5093 5090 5089 5089 5087 5085 5084 5084 5084 5084 5084 5085 5085 5085 5084 5083 5083 5084 5084 5085 5085 5086 5087 5088 5089 5091 5092 5094 5096 5098 5101
5124 5120 5116 5113 5110 5108 5105 5101 5097 5095 5093 5091 5088 5085 5083 5081 5080 5079 5077 5076 5075 5076 5075 5075 5076 5076 5075 5075 5075 5075 5075 5076 5076 5077 5078 5078 5079 5080 5082 5083 5085 5087 5089 5092
5116 5113 5109 5105 5102 5099 5096 5093 5090 5087 5085 5083 5081 5079 5076 5074 5072 5071 5070 5069 5068 5068 5068 5067 5067 5067 5067 5067 5067 5067 5068 5068 5068 5068 5069 5070 5071 5072 5074 5075 5077 5079 5081 5083
5108 5104 5101 5098 5094 5091 5087 5084 5082 5079 5077 5075 5073 5072 5070 5067 5066 5064 5063 5062 5061 5061 5060 5060 5059 5059 5059 5060 5060 5060 5060 5061 5061 5061 5062 5063 5063 5065 5066 5068 5069 5072 5074 5076